Location: Unspecified
(41.1850°N, 73.2650°W)
Time: 12:53:59
(UTC+00:00)

SL-08 R/B - Pass Details

Date: 15 March 2026
Orbit: 946 x 992 km, 83.0° (Epoch: 18 April)

Event Time Altitude Azimuth Distance (km) Brightness Sun altitude
Exits shadow 02:26:05 37° 331° (NNW) 1,426 5.6 -37.5°
Drops below altitude 10° 02:30:04 10° 357° (N) 2,675 7.2 -38.1°
Sets 02:32:39 0° 3° (N) 3,624 7.9 -38.5°
